Weather History for Harrison, AR

Change the Weather History Date:

Sunday, December 9, 2012

  Actual Average Record
Temperature  
Mean Temperature 45 °F 39 °F  
Max Temperature 58 °F 49 °F 75 °F (1965)
Min Temperature 32 °F 30 °F -2 °F (1917)
Degree Days  
Heating Degree Days 20 26  
Month to date heating degree days 98 219  
Since 1 July heating degree days 850 983  
Cooling Degree Days 0 0  
Month to date cooling degree days 8 0  
Year to date cooling degree days 1969 1416  
Moisture  
Dew Point 49 °F    
Average Humidity 88    
Maximum Humidity 100    
Minimum Humidity 76    
Precipitation  
Precipitation 0.32 in 0.11 in 2.03 in (1971)
Month to date precipitation 0.90 1.07  
Year to date precipitation 28.35 42.01  
Snow  
Snow 0.00 in 0.00 in 1.00 in (1961)
Month to date snowfall 0.0 0.0  
Since 1 July snowfall 0.0 0.5  
Snow Depth 0.00 in    
Sea Level Pressure  
Sea Level Pressure 29.82 in    
Wind  
Wind Speed 9 mph (NW)    
Max Wind Speed 17 mph    
Max Gust Speed 24 mph    
Visibility 4 miles    
Events Fog , Rain , Thunderstorm    
T = Trace of Precipitation, MM = Missing Value Source: NWS Daily Summary

Daily Weather History Graph

Daily Weather History Graph

Search for Another Location

Airport:

Trip Planner

Search our weather history database for the weather conditions in past years. The results will help you decide how hot, cold, wet, or windy it might be!

Date:

Astronomy

Dec. 09, 2012 Rise Set
Actual Time 7:12 AM CST 4:57 PM CST
Civil Twilight 6:44 AM CST 5:26 PM CST
Nautical Twilight 6:11 AM CST 5:58 PM CST
Astronomical Twilight 5:40 AM CST 6:29 PM CST
Moon 2:51 AM CST (12/9) 2:00 PM CST (12/9)
Length of Visible Light 10h 42m
Length of Day
9h 45m
Waning Crescent, 18% of the Moon is Illuminated
Dec 9
Waning Crescent
Dec 13
New
Dec 19
First Quarter
Dec 28
Full
Jan 4
Last Quarter

Hourly Weather History & Observations

Time (CST) Temp. Windchill Dew Point Humidity Pressure Visibility Wind Dir Wind Speed Gust Speed Precip Events Conditions
12:53 AM 50.0 °F - 50.0 °F 100% 29.80 in 4.0 mi South 8.1 mph - N/A   Clear
1:44 AM 51.8 °F - 50.0 °F 94% 29.81 in 3.0 mi SSE 5.8 mph - N/A   Mostly Cloudy
1:53 AM 52.0 °F - 51.1 °F 97% 29.80 in 3.0 mi SSE 3.5 mph - N/A   Mostly Cloudy
2:24 AM 51.8 °F - 51.8 °F 100% 29.81 in 2.5 mi SE 5.8 mph - N/A   Overcast
2:38 AM 51.8 °F - 51.8 °F 100% 29.81 in 1.5 mi SE 5.8 mph - N/A   Overcast
2:51 AM 51.8 °F - 51.8 °F 100% 29.80 in 0.5 mi SE 4.6 mph - N/A Fog Fog
2:53 AM 51.1 °F - 51.1 °F 100% 29.79 in 0.5 mi SE 4.6 mph - N/A Fog Fog
3:02 AM 51.8 °F - 51.8 °F 100% 29.80 in 0.2 mi ESE 4.6 mph - N/A Fog Fog
3:53 AM 52.0 °F - 52.0 °F 100% 29.79 in 0.2 mi SE 5.8 mph - 0.02 in Fog Fog
4:42 AM 51.8 °F - 51.8 °F 100% 29.79 in 0.2 mi SSE 4.6 mph - 0.03 in Fog , Rain Light Rain
4:48 AM 53.6 °F - 53.6 °F 100% 29.80 in 0.5 mi Calm Calm - 0.03 in Fog Fog
4:53 AM 53.1 °F - 53.1 °F 100% 29.78 in 0.8 mi South 4.6 mph - 0.03 in   Overcast
5:01 AM 53.6 °F - 53.6 °F 100% 29.79 in 1.0 mi SSE 5.8 mph - N/A   Overcast
5:15 AM 53.6 °F - 53.6 °F 100% 29.78 in 0.5 mi SE 5.8 mph - N/A Fog Fog
5:30 AM 53.6 °F - 53.6 °F 100% 29.78 in 0.2 mi SE 3.5 mph - N/A Fog Fog
5:50 AM 53.6 °F - 51.8 °F 94% 29.78 in 0.2 mi SSE 5.8 mph - N/A Fog Fog
5:53 AM 53.1 °F - 52.0 °F 96% 29.77 in 0.2 mi SE 5.8 mph - N/A Fog Fog
6:32 AM 51.8 °F - 51.8 °F 100% 29.77 in 0.2 mi SE 6.9 mph - 0.00 in Fog , Rain , Thunderstorm Light Rain
6:53 AM 53.1 °F - 52.0 °F 96% 29.79 in 0.2 mi NW 13.8 mph - 0.07 in Fog , Rain , Thunderstorm Heavy Thunderstorms and Rain
6:58 AM 53.6 °F - 51.8 °F 94% 29.79 in 0.5 mi NNW 6.9 mph - 0.10 in Fog , Rain , Thunderstorm Heavy Thunderstorms and Rain
7:00 AM 53.6 °F - 51.8 °F 94% 29.80 in 0.8 mi NW 6.9 mph - 0.11 in Rain , Thunderstorm Heavy Thunderstorms and Rain
7:03 AM 53.6 °F - 53.6 °F 100% 29.80 in 1.5 mi North 3.5 mph - 0.12 in Rain , Thunderstorm Rain
7:05 AM 53.6 °F - 53.6 °F 100% 29.80 in 2.0 mi Calm Calm - 0.13 in Rain , Thunderstorm Heavy Rain
7:14 AM 53.6 °F - 53.6 °F 100% 29.78 in 2.5 mi East 5.8 mph - 0.18 in Rain Rain
7:22 AM 53.6 °F - 53.6 °F 100% 29.78 in 4.0 mi ESE 3.5 mph - 0.18 in Rain Light Rain
7:53 AM 54.0 °F - 54.0 °F 100% 29.77 in 5.0 mi SSE 3.5 mph - 0.18 in   Mostly Cloudy
8:08 AM 53.6 °F - 53.6 °F 100% 29.78 in 6.0 mi North 4.6 mph - N/A   Overcast
8:53 AM 55.0 °F - 55.0 °F 100% 29.77 in 7.0 mi SE 3.5 mph - N/A   Mostly Cloudy
9:16 AM 55.4 °F - 55.4 °F 100% 29.80 in 5.0 mi NNW 4.6 mph - N/A   Overcast
9:51 AM 55.4 °F - 55.4 °F 100% 29.79 in 5.0 mi Calm Calm - N/A   Overcast
9:52 AM 55.9 °F - 55.0 °F 97% 29.78 in 5.0 mi Calm Calm - N/A   Overcast
10:38 AM 57.2 °F - 55.4 °F 94% 29.80 in 4.0 mi Calm Calm - 0.02 in Rain Light Rain
10:53 AM 57.0 °F - 55.9 °F 96% 29.78 in 6.0 mi WNW 4.6 mph - 0.02 in   Overcast
11:13 AM 57.2 °F - 55.4 °F 94% 29.80 in 8.0 mi NW 3.5 mph - N/A   Overcast
11:44 AM 55.4 °F - 55.4 °F 100% 29.79 in 6.0 mi NW 10.4 mph - N/A   Overcast
11:53 AM 55.9 °F - 54.0 °F 93% 29.78 in 5.0 mi NW 10.4 mph - N/A   Overcast
12:00 PM 55.4 °F - 53.6 °F 94% 29.79 in 4.0 mi NW 11.5 mph - N/A   Overcast
12:11 PM 55.4 °F - 53.6 °F 94% 29.79 in 1.8 mi NW 9.2 mph - N/A   Overcast
12:19 PM 55.4 °F - 53.6 °F 94% 29.78 in 0.5 mi NW 10.4 mph - N/A Fog Fog
12:26 PM 53.6 °F - 53.6 °F 100% 29.78 in 0.2 mi NW 11.5 mph - N/A Fog Fog
12:49 PM 53.6 °F - 53.6 °F 100% 29.78 in 0.8 mi NNW 8.1 mph - N/A   Mist
12:53 PM 53.1 °F - 53.1 °F 100% 29.78 in 2.5 mi NNW 8.1 mph - N/A   Overcast
12:55 PM 53.6 °F - 53.6 °F 100% 29.79 in 3.0 mi NNW 5.8 mph - N/A   Overcast
1:08 PM 53.6 °F - 51.8 °F 94% 29.78 in 5.0 mi NW 6.9 mph - N/A   Overcast
1:18 PM 51.8 °F - 50.0 °F 94% 29.79 in 2.0 mi NW 11.5 mph - N/A   Overcast
1:26 PM 51.8 °F - 50.0 °F 94% 29.79 in 1.8 mi NNW 8.1 mph 18.4 mph N/A   Overcast
1:53 PM 50.0 °F - 48.0 °F 93% 29.78 in 3.0 mi NW 15.0 mph - N/A   Overcast
2:02 PM 50.0 °F - 48.2 °F 94% 29.79 in 3.0 mi NW 11.5 mph - N/A   Overcast
2:53 PM 48.0 °F - 46.0 °F 93% 29.81 in 4.0 mi NW 10.4 mph - N/A   Overcast
3:53 PM 46.9 °F - 44.1 °F 90% 29.84 in 8.0 mi NW 11.5 mph 20.7 mph N/A   Overcast
4:53 PM 46.0 °F 41.0 °F 43.0 °F 89% 29.85 in 9.0 mi WNW 10.4 mph - N/A   Overcast
5:03 PM 46.4 °F 41.1 °F 42.8 °F 87% 29.86 in 8.0 mi WNW 11.5 mph 19.6 mph N/A   Overcast
5:17 PM 46.4 °F 42.4 °F 42.8 °F 87% 29.86 in 6.0 mi WNW 8.1 mph 17.3 mph N/A   Overcast
5:29 PM 46.4 °F 41.1 °F 42.8 °F 87% 29.87 in 6.0 mi WNW 11.5 mph 17.3 mph N/A   Overcast
5:53 PM 46.0 °F 39.9 °F 42.1 °F 86% 29.88 in 9.0 mi NW 13.8 mph 19.6 mph N/A   Overcast
6:25 PM 44.6 °F 39.2 °F 41.0 °F 87% 29.90 in 10.0 mi NW 10.4 mph - N/A   Overcast
6:53 PM 45.0 °F 38.9 °F 41.0 °F 86% 29.89 in 10.0 mi NW 12.7 mph - N/A   Overcast
7:11 PM 44.6 °F 38.8 °F 39.2 °F 81% 29.90 in 10.0 mi NW 11.5 mph - N/A   Overcast
7:53 PM 45.0 °F 39.7 °F 39.0 °F 80% 29.91 in 10.0 mi NW 10.4 mph - N/A   Overcast
8:50 PM 42.8 °F 35.4 °F 37.4 °F 81% 29.91 in 9.0 mi NW 15.0 mph 20.7 mph N/A   Overcast
8:53 PM 43.0 °F 36.0 °F 37.9 °F 82% 29.92 in 8.0 mi NW 13.8 mph 20.7 mph N/A   Overcast
9:37 PM 41.0 °F 35.2 °F 35.6 °F 81% 29.93 in 10.0 mi NW 9.2 mph - N/A   Overcast
9:53 PM 41.0 °F 34.7 °F 35.1 °F 79% 29.93 in 10.0 mi NW 10.4 mph - N/A   Overcast
10:53 PM 37.9 °F 30.0 °F 30.9 °F 76% 29.96 in 10.0 mi NW 12.7 mph - N/A   Overcast
11:53 PM 33.1 °F 23.4 °F 25.0 °F 72% 29.96 in 10.0 mi NW 13.8 mph 21.9 mph N/A   Partly Cloudy